Location: Powder Track
(41.8531°N, 72.3584°W)
Time: 00:22:37
(UTC+00:00)

Vanguard 1 Rocket - Pass Details

Date: 13 August 2021
Orbit: 650 x 4226 km, 34.3° (Epoch: 19 September)

Event Time Altitude Azimuth Distance (km) Brightness Sun altitude
Rises 16:23:39 0° 278° (W) 8,205 12.1 61.8°
Reaches altitude 10° 16:30:03 10° 275° (W) 6,836 11.9 62.1°
Maximum altitude 16:49:07 50° 209° (SSW) 2,953 11.6 62.6°
Drops below altitude 10° 16:59:21 10° 137° (SE) 3,835 11.0 62.6°
Sets 17:01:52 0° 131° (SE) 4,485 11.2 62.5°
